Погода в Семеновке

Россия / Республика Марий Эл     56°39′11″N   47°58′38″E
темп.,
°C
ветер,
м/с
пор.,
м/с
влажн.,
%
обл.,
%
осадки,
мм/ч
давл.,
гПа
погр.,
м
6 марта, сб
сб600:00−12сз239789 0.0 100827
03:00−13ссз229688 0.1 101027
06:00−16зсз349392 0.0 101274
09:00−13з369479 0.1 1013298
12:00−10з358799 0.1 1014654
15:00−9з358799 0.1 1012644
18:00−12з2294100 0.1 101321
21:00−14зюз239695 0.2 101237
7 марта, вс
вс700:00−16зюз239885 0.0 101122
03:00−17юз239886 0.1 101132
06:00−17ююз239899 0.1 101045
09:00−14ююз359699 0.1 1009219
12:00−9ю5892100 0.0 1006497
15:00−8ю61088100 0.1 1003693
18:00−8ю61294100 0.3 1000822
21:00−7ю61294100 1.5 996840
8 марта, пн
пн800:00−7ююв61294100 1.2 991772
03:00−5ю61295100 2.6 990673
06:00−8юз51292100 0.6 989726
09:00−8юз61184100 0.7 991895
12:00−7юз71181100 0.0 9931058
15:00−7юз71091100 0.3 9941023
18:00−7зюз61193100 0.8 995737
21:00−10зсз4993100 1.1 998371
9 марта, вт
вт900:00−13зсз479696 0.0 1000165
03:00−16зсз369782 0.1 1002140
06:00−16зсз369684 0.1 1005155
09:00−15сз369387 0.1 1007343
12:00−13сз3590100 0.1 1009518
15:00−12зсз4688100 0.1 1010699
18:00−14зсз3794100 0.1 1011286
21:00−17сз359796 0.2 1013143
10 марта, ср
ср1000:00−19ссз369884 0.1 1014126
03:00−21ссз359880 0.1 1015140
06:00−22ссз379793 0.1 1016209
09:00−22с469596 0.1 1018341
12:00−20с4689100 0.0 1019467
15:00−19ссз468694 0.0 1020559
18:00−22сз239348 0.0 102127
21:00−24сз339724 0.0 102238